[[[{"header":{"parameterUnit":"kt","parameterCategory":2,"dx":1,"dy":1,"la1":30.253999710083008,"la2":30.299108505249023,"lo1":-89.0895004272461,"lo2":-89.04439544677734,"nx":28,"ny":28,"refTime":"2022-10-09T21:00:00:Z","depth":0,"parameterNumber":1,"parameterNumberName":"U-component_of_WINDS"},"data":[-7.9136,-7.9279,-7.926,-7.9415,-7.9424,-7.9527,-7.9557,-7.9595,-7.9619,-7.974,-7.9806,-7.98,-7.9817,-7.9891,-7.9962,-7.9958,-7.999,-8.0057,-8.0041,-7.9759,-7.9719,-7.968,-7.9645,-8.0064,-8.0065,-8.0337,-8.0339,-8.0341,-7.8938,-7.8948,-7.9023,-7.9082,-7.9147,-7.9072,-7.9113,-7.9172,-7.9266,-7.9296,-7.9359,-7.9463,-7.9543,-7.9535,-7.9609,-7.9677,-7.9645,-7.9698,-7.9694,-7.9698,-7.9395,-7.9358,-7.9723,-7.9723,-7.9723,-7.9723,-7.9723,-7.9723,-7.8571,-7.8657,-7.868,-7.8761,-7.8785,-7.8825,-7.8904,-7.8894,-7.8967,-7.9039,-7.8999,-7.9104,-7.913,-7.9206,-7.9226,-7.9308,-7.9245,-7.9297,-7.931,-7.9325,-7.9345,-7.8961,-7.9319,-7.9318,-7.9317,-7.9316,-7.9315,0,-7.8296,-7.8274,-7.8342,-7.8407,-7.8464,-7.8512,-7.8551,-7.8599,-7.854,-7.8603,-7.8692,-7.8739,-7.8833,-7.8915,-7.8977,-7.8986,-7.8913,-7.8902,-7.8938,-7.8961,-7.8975,-7.8973,-7.8483,-7.8892,-7.8888,-7.8885,-7.8883,-7.8882,-7.7927,-7.8028,-7.804,-7.8092,-7.8107,-7.8191,-7.8237,-7.8176,-7.8228,-7.8267,-7.8346,-7.8425,-7.8486,-7.8632,-7.8617,-7.8687,-7.8652,-7.8812,-7.8662,-7.8681,-7.8658,-7.8654,-7.8665,-7.8842,-7.8847,-7.8851,-7.8855,0,-7.7722,-7.7685,-7.7834,-7.7834,-7.7837,-7.7947,-7.7947,-7.803,-7.8008,-7.812,-7.8142,-7.8109,-7.8197,-7.8155,-7.8246,-7.8222,-7.8406,-7.8369,-7.8398,-7.8389,-7.853,-7.8519,-7.8987,-7.9046,-7.8609,-7.8613,-7.8616,0,-7.7393,-7.7528,-7.7464,-7.7552,-7.7701,-7.7634,-7.7783,-7.7779,-7.7797,-7.7883,-7.7791,-7.7875,-7.7807,-7.7885,-7.7849,-7.7991,-7.8007,-7.7998,-7.7987,-7.8008,-7.8009,-7.8035,-7.8016,-7.7954,-7.7952,-7.795,-7.7948,0,-7.7078,-7.7198,-7.7341,-7.7363,-7.7374,-7.7444,-7.7452,-7.747,-7.7514,-7.7564,-7.7593,-7.7656,-7.7692,-7.7743,-7.7696,-7.7597,-7.7868,-7.7721,-7.7859,-7.7861,-7.7922,-7.7919,-7.8343,-7.7945,-7.7944,-7.7944,-7.7943,0,-7.6805,-7.6856,-7.7068,-7.7076,-7.711,-7.7203,-7.7261,-7.733,-7.7356,-7.7338,-7.7377,-7.731,-7.7427,-7.7286,-7.7449,-7.7333,-7.7374,-7.7374,-7.7383,-7.7393,-7.7236,-7.7484,-7.789,-7.7932,-7.7401,-7.7397,-7.7392,0,-7.6457,-7.6658,-7.6601,-7.6803,-7.689,-7.678,-7.6882,-7.6906,-7.6891,-7.6963,-7.6945,-7.7027,-7.6912,-7.6932,-7.7018,-7.7003,-7.7154,-7.6981,-7.709,-7.7095,-7.709,-7.7462,-7.7534,-7.7805,-7.7334,-7.734,-7.7344,0,-7.618,-7.619,-7.623,-7.6252,-7.627,-7.6341,-7.6459,-7.6524,-7.6576,-7.6611,-7.6709,-7.6821,-7.674,-7.6772,-7.6723,-7.6815,-7.705,-7.6714,-7.6714,-7.6779,-7.7299,-7.7368,-7.7414,-7.6997,-7.7004,-7.701,-7.7298,0,-7.5784,-7.5877,-7.5981,-7.6029,-7.6076,-7.6197,-7.6148,-7.6205,-7.6152,-7.6132,-7.6273,-7.6279,-7.6345,-7.6383,-7.6332,-7.6554,-7.6511,-7.6422,-7.6281,-7.6525,-7.6619,-7.6657,-7.6146,-7.6141,-7.6138,-7.6135,0,0,-7.5461,-7.5592,-7.5523,-7.5633,-7.5668,-7.555,-7.5685,-7.5705,-7.575,-7.5778,-7.5699,-7.5858,-7.5866,-7.6043,-7.6115,-7.614,-7.6177,-7.6092,-7.6409,-7.644,-7.6468,-7.6569,-7.661,-7.6128,-7.6127,-7.6125,-7.6124,0,-7.5305,-7.5313,-7.5446,-7.5464,-7.5488,-7.5458,-7.549,-7.5492,-7.5485,-7.562,-7.5521,-7.5599,-7.5726,-7.5749,-7.5777,-7.6069,-7.599,-7.6093,-7.6268,-7.6373,-7.6409,-7.644,-7.6547,-7.6586,-7.6115,-7.6116,-7.6116,0,-7.5026,-7.5027,-7.5085,-7.5157,-7.517,-7.5261,-7.5101,-7.5202,-7.5269,-7.5132,-7.5269,-7.5265,-7.5289,-7.5461,-7.5536,-7.5466,-7.5825,-7.57,-7.5723,-7.573,-7.5829,-7.5872,-7.5911,-7.5407,-7.5404,-7.5402,0,0,-7.4899,-7.4983,-7.4963,-7.5119,-7.5135,-7.5092,-7.5133,-7.5084,-7.5108,-7.5117,-7.511,-7.5137,-7.521,-7.526,-7.5325,-7.552,-7.5521,-7.5615,-7.5649,-7.5676,-7.5699,-7.5805,-7.5848,-7.5394,-7.5394,-7.5393,0,0,-7.4837,-7.482,-7.4762,-7.4936,-7.4962,-7.4952,-7.505,-7.4979,-7.5032,-7.5013,-7.4934,-7.4938,-7.5097,-7.5096,-7.4988,-7.5275,-7.5137,-7.5161,-7.5269,-7.5311,-7.5343,-7.5341,-7.4825,0,0,0,0,0,-7.4651,-7.4822,-7.4769,-7.4791,-7.488,-7.4982,-7.4993,-7.4931,-7.4835,-7.4915,-7.4898,-7.4809,-7.5022,-7.4925,-7.4948,-7.5069,-7.5284,-7.5303,-7.5322,-7.5506,-7.555,-7.5587,0,0,0,0,0,0,-7.4659,-7.4686,-7.4765,-7.4763,-7.4782,-7.4975,-7.4799,-7.4787,-7.4825,-7.4807,-7.4815,-7.4809,-7.4759,-7.4909,-7.4931,-7.5047,-7.4818,-7.5291,-7.5308,-7.5323,-7.5521,-7.5557,-7.5588,0,0,0,0,0,-7.4665,-7.4686,-7.4845,-7.476,-7.4777,-7.4736,-7.4792,-7.4781,-7.4809,-7.4782,-7.4773,-7.476,-7.4764,-7.4778,-7.4921,-7.5039,-7.4802,-7.481,-7.5302,-7.5315,-7.5327,-7.5539,0,0,0,0,0,0,-7.467,-7.4677,-7.4846,-7.4849,-7.469,-7.4724,-7.4727,-7.4776,-7.478,-7.4773,-7.4721,-7.4707,-7.4769,-7.4779,-7.479,-7.504,-7.479,-7.4798,-7.4803,-7.5312,-7.5322,-7.5331,0,0,0,0,0,0,-7.4665,-7.468,-7.4848,-7.4763,-7.4756,-7.4714,-7.4716,-7.4828,-7.4782,-7.4719,-7.4707,-7.4715,-7.4752,-7.4781,-7.4789,-7.4967,-7.478,-7.4788,-7.4794,-7.4797,-7.532,-7.5328,0,0,0,0,0,0,-7.467,-7.4683,-7.4762,-7.4756,-7.4749,-7.4777,-7.4811,-7.4906,-7.4709,-7.4721,-7.469,-7.4681,-7.4757,-7.4764,-7.479,-7.4964,-7.4966,-7.478,-7.4786,-7.479,-7.4792,0,0,0,0,0,0,0,-7.4675,-7.4601,-7.483,-7.4751,-7.4744,-7.4876,-7.4877,-7.4877,-7.4707,-7.4699,-7.4692,-7.4684,-7.4734,-7.4743,-7.4752,-7.4962,0,0,-7.4779,-7.4783,0,0,0,0,0,0,0,0,-7.4594,-7.46,-7.483,-7.483,-7.4831,-7.4876,-7.4877,-7.4877,-7.4706,-7.4699,-7.4693,-7.4687,-7.4736,-7.4743,-7.4751,0,0,0,0,0,0,0,0,0,0,0,0,0,0,0,-7.483,-7.483,0,-7.4876,-7.4877,-7.4877,-7.4705,-7.47,-7.4695,-7.469,-7.4738,-7.4744,-7.475,0,0,0,0,0,0,0,0,0,0,0,0,0,0,0,0,0,0,0,0,0,0,0,0,0,0,0,0,0,0,0,0,0,0,0,0,0,0,0,0,0,0,0,0,0,0,0,0,0,0,0,0,0,0,0,0,0,0,0,0,0,0,0,0,0,0,0,0,0]}],[{"header":{"parameterUnit":"kt","parameterCategory":2,"dx":1,"dy":1,"la1":30.253999710083008,"la2":30.299108505249023,"lo1":-89.0895004272461,"lo2":-89.04439544677734,"nx":28,"ny":28,"refTime":"2022-10-09T21:00:00:Z","depth":0,"parameterNumber":2,"parameterNumberName":"V-component_of_WINDS"},"data":[-3.448,-3.4487,-3.4461,-3.4456,-3.4432,-3.4424,-3.4413,-3.4395,-3.4375,-3.4361,-3.4349,-3.4323,-3.4292,-3.4271,-3.4255,-3.4244,-3.424,-3.426,-3.4243,-3.4177,-3.4166,-3.4156,-3.4153,-3.4259,-3.4259,-3.4315,-3.4316,-3.4316,-3.443,-3.4407,-3.4398,-3.4371,-3.4362,-3.4327,-3.4302,-3.4297,-3.4291,-3.4266,-3.4253,-3.4239,-3.4224,-3.4186,-3.4168,-3.4169,-3.4151,-3.4166,-3.4165,-3.4161,-3.4089,-3.4086,-3.418,-3.418,-3.418,-3.418,-3.418,-3.418,-3.4333,-3.4338,-3.4308,-3.4297,-3.4277,-3.4259,-3.4259,-3.4228,-3.4218,-3.4197,-3.4168,-3.4161,-3.4131,-3.4097,-3.4079,-3.4071,-3.4051,-3.4059,-3.4061,-3.4063,-3.4069,-3.399,-3.4067,-3.4067,-3.4066,-3.4066,-3.4066,0,-3.4254,-3.4233,-3.4222,-3.4204,-3.4195,-3.4178,-3.4159,-3.4158,-3.4104,-3.4098,-3.4087,-3.4077,-3.4055,-3.4042,-3.4019,-3.3999,-3.3963,-3.3956,-3.3961,-3.3975,-3.399,-3.3982,-3.3866,-3.3955,-3.3954,-3.3953,-3.3952,-3.3952,-3.4154,-3.4164,-3.412,-3.4116,-3.4099,-3.4094,-3.4085,-3.4037,-3.403,-3.3998,-3.4005,-3.3991,-3.3978,-3.3965,-3.3929,-3.3913,-3.3895,-3.3932,-3.3893,-3.3905,-3.3895,-3.3895,-3.3895,-3.3941,-3.3942,-3.3943,-3.3944,0,-3.41,-3.4059,-3.4066,-3.4022,-3.4011,-3.4023,-3.3985,-3.3988,-3.3958,-3.3958,-3.3955,-3.3909,-3.3899,-3.3857,-3.3838,-3.3816,-3.3833,-3.3817,-3.3843,-3.3837,-3.3865,-3.3863,-3.3965,-3.3975,-3.3865,-3.3866,-3.3867,0,-3.3998,-3.4013,-3.3951,-3.3958,-3.3972,-3.3923,-3.3938,-3.3914,-3.3889,-3.3889,-3.3841,-3.3841,-3.3788,-3.3782,-3.375,-3.3757,-3.3753,-3.3737,-3.3729,-3.3742,-3.3744,-3.3738,-3.3733,-3.371,-3.3709,-3.3709,-3.3708,0,-3.3918,-3.3903,-3.3913,-3.3903,-3.3858,-3.3864,-3.3845,-3.3817,-3.381,-3.3793,-3.3787,-3.3771,-3.3763,-3.3751,-3.371,-3.3685,-3.3718,-3.3675,-3.3701,-3.3702,-3.3712,-3.3712,-3.3812,-3.3708,-3.3708,-3.3707,-3.3707,0,-3.3831,-3.3816,-3.3837,-3.3798,-3.3796,-3.3803,-3.3784,-3.378,-3.3754,-3.3734,-3.3721,-3.3684,-3.3688,-3.3648,-3.3651,-3.363,-3.3624,-3.3609,-3.361,-3.3608,-3.3565,-3.3627,-3.3727,-3.3735,-3.3605,-3.3604,-3.3603,0,-3.3749,-3.376,-3.3719,-3.3741,-3.374,-3.3686,-3.3692,-3.3671,-3.3645,-3.364,-3.3612,-3.3607,-3.3569,-3.3562,-3.3569,-3.354,-3.3567,-3.3535,-3.3527,-3.3528,-3.3536,-3.3627,-3.3652,-3.3709,-3.3592,-3.3593,-3.3594,0,-3.3682,-3.3629,-3.3636,-3.3622,-3.3587,-3.3587,-3.3595,-3.3579,-3.3578,-3.356,-3.3565,-3.3558,-3.3528,-3.3517,-3.3487,-3.3496,-3.3547,-3.3464,-3.3462,-3.348,-3.3583,-3.3607,-3.3617,-3.3524,-3.3525,-3.3526,-3.3585,0,-3.3558,-3.3559,-3.3576,-3.355,-3.3543,-3.3555,-3.3511,-3.3509,-3.348,-3.3454,-3.346,-3.3434,-3.3419,-3.342,-3.3392,-3.3428,-3.3415,-3.3385,-3.3344,-3.3404,-3.3422,-3.343,-3.332,-3.3318,-3.3317,-3.3316,0,0,-3.349,-3.3491,-3.3447,-3.3454,-3.3445,-3.339,-3.3407,-3.3392,-3.3365,-3.336,-3.3336,-3.3323,-3.3303,-3.3316,-3.3332,-3.3326,-3.3328,-3.331,-3.3376,-3.3383,-3.3389,-3.3409,-3.3418,-3.3314,-3.3314,-3.3313,-3.3313,0,-3.3436,-3.3417,-3.3434,-3.3417,-3.3391,-3.3362,-3.3366,-3.333,-3.3314,-3.3322,-3.3277,-3.3276,-3.3268,-3.3252,-3.3242,-3.3307,-3.3273,-3.3305,-3.3354,-3.3365,-3.3374,-3.3381,-3.3403,-3.3411,-3.331,-3.331,-3.331,0,-3.3362,-3.3336,-3.334,-3.3319,-3.3302,-3.3303,-3.3249,-3.3254,-3.3254,-3.3195,-3.3204,-3.3183,-3.3159,-3.3177,-3.3184,-3.3163,-3.3225,-3.3199,-3.3205,-3.3206,-3.3214,-3.3224,-3.3234,-3.3113,-3.3113,-3.3113,0,0,-3.3322,-3.3323,-3.3281,-3.3305,-3.3297,-3.3255,-3.3252,-3.3223,-3.3202,-3.3194,-3.3168,-3.3149,-3.3143,-3.3141,-3.3134,-3.3161,-3.3152,-3.3177,-3.3186,-3.3193,-3.3198,-3.3209,-3.3219,-3.3111,-3.3111,-3.311,0,0,-3.3302,-3.3254,-3.3229,-3.3252,-3.3233,-3.3194,-3.321,-3.3178,-3.3168,-3.3162,-3.3113,-3.3106,-3.3123,-3.3106,-3.3085,-3.3119,-3.3079,-3.3083,-3.313,-3.3141,-3.315,-3.3154,-3.3027,0,0,0,0,0,-3.3226,-3.326,-3.3237,-3.3235,-3.321,-3.3206,-3.3203,-3.3164,-3.3136,-3.3149,-3.3122,-3.3087,-3.3084,-3.3064,-3.3062,-3.3087,-3.3086,-3.309,-3.3094,-3.316,-3.3173,-3.3183,0,0,0,0,0,0,-3.3224,-3.3222,-3.3236,-3.3199,-3.3193,-3.3205,-3.3149,-3.3139,-3.3133,-3.3126,-3.3093,-3.3085,-3.3052,-3.3062,-3.3061,-3.3085,-3.3027,-3.3087,-3.3091,-3.3095,-3.3165,-3.3174,-3.3183,0,0,0,0,0,-3.3223,-3.3221,-3.3191,-3.3198,-3.3193,-3.3149,-3.3147,-3.3139,-3.3133,-3.3092,-3.3083,-3.3105,-3.3054,-3.305,-3.3061,-3.3087,-3.3027,-3.3027,-3.309,-3.3093,-3.3095,-3.3169,0,0,0,0,0,0,-3.3222,-3.3213,-3.3189,-3.3186,-3.3183,-3.3147,-3.314,-3.3139,-3.3098,-3.3091,-3.3101,-3.3096,-3.3056,-3.3053,-3.305,-3.3089,-3.3027,-3.3027,-3.3027,-3.3092,-3.3094,-3.3096,0,0,0,0,0,0,-3.3214,-3.3211,-3.3188,-3.3171,-3.3165,-3.3146,-3.314,-3.3144,-3.3099,-3.311,-3.3104,-3.3099,-3.3059,-3.3054,-3.3052,-3.306,-3.3028,-3.3027,-3.3027,-3.3027,-3.3094,-3.3096,0,0,0,0,0,0,-3.3212,-3.3209,-3.3171,-3.3167,-3.3162,-3.3124,-3.3149,-3.3126,-3.3084,-3.3112,-3.3079,-3.3077,-3.3062,-3.3059,-3.3054,-3.3063,-3.3061,-3.3028,-3.3028,-3.3027,-3.3027,0,0,0,0,0,0,0,-3.321,-3.3238,-3.3208,-3.3164,-3.316,-3.3158,-3.3157,-3.3156,-3.3084,-3.3082,-3.308,-3.3078,-3.3029,-3.3029,-3.3028,-3.3065,0,0,-3.3028,-3.3028,0,0,0,0,0,0,0,0,-3.3238,-3.3238,-3.3208,-3.3207,-3.3206,-3.3158,-3.3157,-3.3156,-3.3083,-3.3082,-3.308,-3.3079,-3.3029,-3.3029,-3.3028,0,0,0,0,0,0,0,0,0,0,0,0,0,0,0,-3.3208,-3.3207,0,-3.3158,-3.3157,-3.3156,-3.3083,-3.3082,-3.308,-3.3079,-3.3029,-3.3029,-3.3028,0,0,0,0,0,0,0,0,0,0,0,0,0,0,0,0,0,0,0,0,0,0,0,0,0,0,0,0,0,0,0,0,0,0,0,0,0,0,0,0,0,0,0,0,0,0,0,0,0,0,0,0,0,0,0,0,0,0,0,0,0,0,0,0,0,0,0,0,0]}]]]